Terminal Aerodrome Forecast
Issued by NWS Twin Cities, MN

Home | Current Version | Previous Version | Graphics & Text | Print | Product List | Glossary On
Versions: 1 2 3 4 5 6 7 8 9 10 11 12 13 14 15 16 17 18 19 20 21 22 23 24 25 26
000
FTUS43 KMPX 020533
TAFSTC
TAF
KSTC 020533Z 0206/0306 16003KT P6SM SCT120 BKN200
      TEMPO 0206/0210 5SM -TSRA BKN050CB OVC100
     FM021000 15004KT P6SM VCSH SCT014 OVC025
     FM021400 16010KT P6SM BKN100
     FM021800 16010KT P6SM SCT050=

USA.gov is the U.S. government's official web portal to all federal, state and local government web resources and services.